Location: Jastrzębia Góra
(54.8312°N, 18.3037°E)
Time: 22:12:50
(UTC+01:00)

ISS - Pass Details

Date: 30 January 2019
Orbit: 403 x 411 km, 51.6° (Epoch: 16 February)

Event Time Altitude Azimuth Distance (km) Brightness Sun altitude
Rises 19:02:25 0° 265° (W) 2,338 1.5 -23.2°
Reaches altitude 10° 19:04:32 10° 259° (W) 1,478 0.0 -23.5°
Enters shadow 19:06:42 33° 235° (SW) 711 -2.2 -23.9°
